Location: Caltech
(34.1382°N, 118.1253°W)
Time: 16:40:30
(UTC-07:00)

Hamsat - Visible Passes

Search period start: 16 October 2017 00:00
Search period end: 26 October 2017 00:00
Orbit: 584 x 619 km, 97.7° (Epoch: 16 October)

Date Brightness Start Highest point End Pass type
(mag) Time Alt. Az. Time Alt. Az. Time Alt. Az.
16 Oct ? 04:59:22 10° N 05:00:55 22° N 05:00:55 22° N visible
17 Oct ? 05:11:06 10° N 05:12:30 20° N 05:12:30 20° N visible
18 Oct ? 05:22:55 10° N 05:24:05 17° NNW 05:24:05 17° NNW visible
19 Oct ? 05:34:51 10° NNW 05:35:40 14° NNW 05:35:40 14° NNW visible
20 Oct ? 05:46:55 10° NNW 05:47:15 11° NNW 05:47:15 11° NNW visible
21 Oct ? 04:21:55 10° NNE 04:22:04 11° NNE 04:22:04 11° NNE visible
22 Oct ? 04:33:23 10° NNE 04:33:37 11° NNE 04:33:37 11° NNE visible
23 Oct ? 04:44:56 10° NNE 04:45:12 12° NNE 04:45:12 12° NNE visible
24 Oct ? 04:56:34 10° N 04:56:46 11° N 04:56:46 11° N visible
25 Oct ? 05:08:17 10° N 05:08:20 10° N 05:08:20 10° N visible
